8e jogging de la chapelle-au-puits besonrieux 9KM400 Place Dos Temps nom prénom Club



Dovnload 46.48 Kb.
Datum19.08.2016
Grootte46.48 Kb.
8e JOGGING DE LA CHAPELLE-AU-PUITS BESONRIEUX
9KM400
Place Dos Temps NOM Prénom Club
1 620 0:32:12 BARAS Frederic Ds Running

2 530 0:32:45 CORDARO Lino Individuel



3 531 0:33:07 DURANT Patrick AMIS FB

4 552 0:33:49 CENTRITTO Giosi Oxy 2000

5 524 0:35:04 LACROIX Miguel ACLO

6 430 0:35:39 KAISIN Frederic Individuel

7 10 0:35:49 ROUSSEAU Raymond US MAUBEUGE

8 514 0:36:43 TIMMERMANS David AMIS FB

9 554 0:36:44 HAUBE Krys Oxy 2000

10 553 0:36:50 HAUBE Yvan Oxy 2000

11 502 0:36:58 BEIGNE Francis AMIS FB

12 441 0:37:09 PILLON Philippe Frt

13 509 0:37:50 RICOUR Hervé HAC

14 14 0:38:03 STOPPIE Filip BVL



15 507 0:38:12 GULLOTTA Antonino AMIS FB

16 520 0:38:13 IZZARELLI Donato AMIS FB

17 574 0:38:23 ZEGGERS Guy Houssiere Ac

18 598 0:38:27 LEJEUNE Yves BVL

19 114 0:38:37 MACHIELS J Pierre Individuel

20 597 0:38:44 DURIAU J Luc BJB

21 577 0:38:59 STOPPIE Timmy Hebalife

22 415 0:39:07 HAZARD Thierry HAC

23 404 0:39:22 MESSINA Michel HAC

24 546 0:39:41 MODART Paul Individuel

25 567 0:40:13 BILLAUD Yannick Fc Marpent

26 628 0:40:16 POLOME Guy Individuel

27 521 0:40:20 ANCION J Philippe Individuel

28 400 0:40:25 BERSON Christian NAC

29 523 0:40:36 MOLLE Laurent Individuel

30 61 0:40:38 HEYDEN Olivier Bbs

31 111 0:40:42 LEKIME Alain JC BRACQ

32 447 0:40:46 TRICOT Christophe JC EST

33 572 0:40:48 MADONIA Bruno ACLO

34 610 0:40:56 KOWALCZYK Benoît Meute Du Centre

35 384 0:41:05 THIRION Philippe Frt

36 3 0:41:06 DAMBLON Régine ACLO

37 398 0:41:07 MONTESSINO J Paul Esm/promu/crac

38 515 0:41:08 ERAERTS Willy HAC

39 406 0:41:09 DERIVEAU Jean Usbw/promu

40 576 0:41:10 SCHEPENS Dominique Jchsh

41 45 0:41:14 DEMARETS Joel NAC



42 305 0:41:22 PLATBROOD Paul AMIS FB

43 529 0:41:30 DELVAL Daniel Individuel

44 568 0:41:34 MOUNIB Fondail Fc Marpent

45 373 0:41:58 DRUGMAND Fabian THEODO TEMPO

46 410 0:41:59 SURLEREAUX Marc Individuel

47 532 0:42:00 LEJEUNE Christian BJB

48 8 0:42:12 HEMERYCK Christian BJB

49 526 0:42:13 SEL Michel NAC

50 519 0:42:14 MESTER Marcel SPIBO

51 433 0:42:23 OLIVIER Pierre Henry COUROBAR

52 453 0:42:25 FELIX Freddy Individuel

53 599 0:42:39 KESTENS Laurent THEODO TEMPO

54 510 0:42:40 ORVAL Pierre HAC

55 621 0:42:41 MORO Terry NAC

56 604 0:42:47 LEPOUTRE Guy Usbw

57 116 0:43:10 FLEMAL Sébastien ESM

58 617 0:43:11 CICERO Epifanio MARIEMONT

59 543 0:43:12 MATON Herman Jet

60 335 0:43:14 DI LIBERTO Matteo Frt

61 376 0:43:16 DE LEENER J Marie NAC

62 308 0:43:35 PAYEN Pierre Individuel

63 585 0:43:38 MORCRETTE Michel HAC

64 396 0:43:39 DENIS Christian Esm Promu

65 623 0:43:40 MANTEMERRO Michael Individuel

66 374 0:40:48 VAN MELKEBEKE Georges BJB

67 62 0:43:49 FRAGAPANE Calogero JC BRACQ

68 600 0:43:50 ALBERTON Dario Individuel

69 164 0:44:04 DELLA GIUSTINA Bruno JC BRACQ

70 79 0:44:05 PARISIS M Christine Aclo/bjb

71 369 0:44:06 AUTIER Philippe ACLO

72 306 0:44:07 BAUDUIN Elzo JC EST

73 588 0:44:13 BALSAT Philippe BJB

74 479 0:44:30 STOESSER Grégory BVL

75 115 0:44:33 FLEMAL Jean ESM

76 87 0:44:50 ROBERT Jean Marc Individuel

77 605 0:44:57 PALMIERI Laurent Meute Du Centre

78 513 0:45:02 JADOT Francis HAC

79 450 0:45:34 RENARD Serge JC EST

80 44 0:45:35 BERNY Robert CRAC/jchsh

81 320 0:45:50 MEESSEMAN Carlos ESM

82 131 0:46:12 DI GIOVANNI Gina Individuel

83 132 0:46:12 DEBAIX Claude Individuel

84 169 0:46:20 DE VREESE Damien BJB NAC

85 586 0:46:21 DUQUESNE Paul Les Marroniers

86 503 0:46:43 LEPOINT Ronald Individuel

87 403 0:46:44 GILMONT Chantal BJB

88 418 0:46:45 DELVAL Aurore Individuel

89 171 0:46:46 LELOIR Carine ACLO

90 390 0:46:47 ROOS Joël Individuel

91 607 0:46:48 VAN POUCKE Yves Individuel

92 332 0:46:49 DELLA GIUSTINA Claudio JC BRACQ

93 592 0:46:50 ROUSSEAU Fred Eclates Peruwelz

94 104 0:46:51 HEMERYCK Maureen BJB

95 151 0:46:52 IULIANO Ophélie BJB

96 596 0:46:53 BESANGER Richard BJB

97 591 0:46:54 RENARD Didier THEODO TEMPO

98 113 0:46:55 MACHIELS Jason Individuel

99 593 0:46:56 MUREZ Marjorie Eclates Peruwelz

100 84 0:47:22 BOUGARD Bernard MARIEMONT

101 436 0:47:23 FAVERLY J Luc MARIEMONT

102 537 0:47:24 DUJARDIN Vincent Stella Artois

103 508 0:47:25 BRABANT Robert HAC

104 41 0:47:26 ADANT Grégory Promu

105 92 0:47:27 CASTIAUX Michaël JC EST



106 601 0:47:28 PHILIPPRON Frederic AMIS FB

107 420 0:47:29 PATER Jocelyne ACLO

108 478 0:47:50 LOONEN Willem BVL

109 303 0:48:14 JANSSENS Alain ESM

110 611 0:48:22 PALMIERI Lorenzo BJB

111 630 0:48:23 EVRARD Francis BJB

112 534 0:48:24 MALVOZ J Remy ESM

113 389 0:48:25 DELETRAIN Nathalie ESM

114 547 0:48:26 DELPERDANGE Sébastien Crac

115 565 0:48:27 MARIANO Salvatore AMIS FB

116 563 0:48:37 TIMMERMANS Danielle AMIS FB

117 545 0:48:47 LACROIX Patrick Usbw

118 556 0:48:50 SCICHILONE Vincent J C BRACQ

119 428 0:48:51 PREAUX Jean Luc Individuel

120 19 0:48:52 ALVES Marc ALVES TEAM

121 426 0:48:55 LENGLAIS Frank ACLO

122 401 0:48:56 VANGERMEERSCH Roland ACLO

123 70 0:49:00 DENEFFE Guy Individuel

124 580 0:49:01 BURY Claudine ACLO

125 311 0:49:36 KINDERMANS Jean Pierre NAC

126 603 0:49:37 LAURENT Alain NAC

127 609 0:49:38 PUGNAGHI Marc AMIS FB

128 397 0:49:39 ROELS Franz BJB

129 162 0:49:40 DE RUYTER Didier JC EST

130 570 0:49:41 PROVENZANO Sylvia ACLO

131 573 0:49:42 DE SUTTER Luc RACLO

132 622 0:50:00 VAN EESBEEK Christian ACLO

133 165 0:50:22 VANDENHEEDE Chantal MARIEMONT

134 445 0:50:23 HECQ Roland MARIEMONT

135 555 0:50:24 DEWIGNE Bernard Globe Trotters

136 539 0:50:25 MEULEMAN Thierry ACLO



137 516 0:50:37 KESTELOOT Jacques AMIS FB

138 15 0:50:47 STEENS Emiel BVL

139 627 0:50:48 BUCHET Frederic Usbw

140 542 0:51:06 ATATY Kevin Mfc Besonrieux

141 535 0:51:19 NOCITRA Rocco Jupiler

142 93 0:51:36 BUYLE Jean Luc JC EST

143 566 0:51:37 DUYCK Nadine Sbw Road Team

144 571 0:51:38 METILLON Henri Usbw

145 575 0:51:39 VREUX Eric Individuel

146 606 0:51:40 CLIN Nathalie ACLO

147 583 0:51:52 BAVAY Jenny Marroniers

148 359 0:51:53 ROMBAUX Didier BJB

149 452 0:51:54 THIRION Françoise Esm/promu

150 412 0:52:04 HEMERYCK Michel BJB

151 619 0:52:03 CONART Françoise Jcsa

152 363 0:52:12 HERBIN Laurent ESM

153 324 0:52:16 MAROT Anne USBW ROAD TEAM

154 317 0:52:17 BARBIER Yves PROMU/ Road Team

155 409 0:52:18 MABILLE Leopold JC BRACQ

156 125 0:52:19 BOUILLON Claire Individuel

157 518 0:52:20 LOUAGIE Daniel Cs Dyle Genappe

158 590 0:52:35 BONRIDDER Jean St Bernard

159 582 0:52:46 LOBET J Luc ACLO

160 170 0:52:57 BOONAERT Hilaire Jcsa/promu

161 142 0:53:06 LAMBERT Bernadette ACLO

162 22 0:53:14 SCHMIT Logan Nac/cabw/promu

163 2 0:53:26 BOUDART Fabienne RACLO

164 307 0:53:27 DOYEN Yvon JC EST

165 550 0:53:46 MAES Roger BJB

166 625 0:53:47 ROELANDTS Antoine Individuel

167 4 0:54:00 BARBAROSSA Roméo ACLO

168 587 0:54:14 NOPERE Isabelle Les Marroniers

169 536 0:54:27 NOCITRA Giacomo Jupiler

170 408 0:54:28 ERTVELDT Herbert Bvl

171 26 0:54:29 HUGE Geoffrey BONNE ESPERANCE

172 88 0:54:30 GLOTZ David BONNE ESPERANCE

173 602 0:54:36 ENGLEBERT Sabine BJB

174 624 0:54:46 ROELANDTS Vincent Individuel

175 323 0:54:52 BEELEN Lisette BVL

176 161 0:54:52 CEUPPENS Patrick BVL

177 423 0:55:01 COZZA Christophe Individuel

178 584 0:55:02 FRANCOIS Véronique Les Marroniers

179 615 0:55:31 IULIANO Nicolas BJB

180 83 0:55:36 PUTTAERT Felix SELENJO

181 31 0:55:37 KINDERMANS Nicolas CABW

182 120 0:55:38 VERMEULEN Freddy NAC

183 59 0:55:39 SCHMIT Robert Promu

184 166 0:55:40 RUELLE Léon MARIEMONT

185 40 0:55:41 MARIEN Jessica Individuel

186 39 0:55:42 MARIEN Jean Luc Individuel

187 618 0:55:58 FREDERIC Nathalie Jcsa

188 315 0:55:59 LEROY Paulette JC EST

189 143 0:56:00 POURTOIS Alain Amll

190 72 0:56:25 DEVOS Fabrice Individuel

191 357 0:56:56 DEHAESELEER Michèle Individuel

192 439 0:57:20 MEESSEMAN Guillaume ESM

193 340 0:57:21 LOUVIEAUX Eustache Promu/jc Est

194 97 0:57:30 PIETTE Pascal TEAM PIETTE

195 100 0:57:31 GRAUWELS Barbara TEAM PIETTE

196 71 0:57:54 TRAPANI Raimondo JC BRACQ

197 382 0:58:27 HEMERYCK Lindsay BJB

198 346 0:58:29 TOTIN Georges Individuel

199 579 0:58:31 RIGO Paul Henri Wrt

200 629 0:58:39 TILTE Betty Individuel

201 422 0:58:56 BUCHTA J Marie ACLO

202 69 0:59:00 LUCARELLI Toni Esm/crac/promu

203 68 0:59:00 SPINDOR Joseph ESM

204 449 0:59:20 GEOFFROY Patrick Individuel



205 608 0:59:33 CAMPAGNA Antonia AMIS FB

206 525 0:59:50 GIRARD Maurice BJB

207 107 1:00:20 DECUYPER Jean JC EST

208 437 1:01:10 BOUCHERAI Alain PROMUSPORT

209 103 1:01:17 MAUS Madeleine Individuel

210 173 1:02:39 GLINNE Bernadette Individuel

211 172 1:01:50 NAVEZ Sandrine Individuel

212 528 1:01:51 DE SMAELS Remi Ds

213 47 1:01:52 DECAMPS Véronique JC BRACQ

214 533 1:01:55 MOUVET Marie Claire Usbw



215 564 1:04:46 PALUMBO Lucia AMIS FB

216 578 1:04:47 LELOIR Claude ACLO

217 36 1:04:59 SCHMITZ Marie Claire JC EST

218 109 1:05:10 TARIN J Pol Individuel

219 52 1:05:22 WEIDNER Véronique ACLO

220 91 1:05:30 BEOSIER Monique BVL

221 13 1:05:50 DEVICHE Christiane Promu

222 48 1:06:15 VALJEAN Jean CRAC / Esm



223 506 1:06:30 ORLANDO Elvira AMIS FB

224 595 1:06:31 BONSEMBIANTE Fabrice AMIS FB

225 46 1:06:31 RIGBOURG Pascale Jc Aubinois



226 517 1:06:31 SAUSSEZ Eric AMIS FB

227 512 1:06:31 MATTIOLI J Marie Aefb

228 614 1:07:25 LEROUX Françoise Bouffiols

229 35 1:07:25 VAN AKKER Roger Bvl Promusport

230 626 1:09:30 COLLIN Valérie GDBI

231 99 1:10:16 DESMEDT Daniel BVL

232 66 1:11:17 CARLIER Veroniqe NAC

233 130 1:14:00 CORDIER Martine FLEURUS PROMU

234 75 1:14:00 ROBERT Guy Fleurus/promu

235 57 1:16:59 QUAIRIERE Roxane AMIS FB

236 49 1:16:59 DOCLOT Agnès ALVES TEAM

237 23 1:18:59 BOUGARD Martine Crac

238 155 1:30:00 PIETTE Mélissa TEAM PIETTE



239 12 1:30:10 MEESEMAN Ludivine ESM




De database wordt beschermd door het auteursrecht ©opleid.info 2019
stuur bericht

    Hoofdpagina